Tracking 33188 objects as of 10-Feb-2026
HD Live streaming from Space Station
objects crossing your sky now

STARLINK-6157

Track STARLINK-6157 now!
10-day predictions
STARLINK-6157 is classified as:


NORAD ID: 56379
Int'l Code: 2023-061F
Perigee: 565.2 km
Apogee: 567.3 km
Inclination: 43.0 °
Period: 95.8 minutes
Semi major axis: 6937 km
RCS: Unknown
Launch date: May 4, 2023
Source: United States (US)
Launch site: AIR FORCE EASTERN TEST RANGE (AFETR)
Your satellite tracking list
Your tracking list is empty




NASA's NSSDC Master Catalog

Two Line Element Set (TLE):
1 56379U 23061F   26040.29330149  .00000567  00000-0  57055-4 0  9999
2 56379  43.0043 351.7196 0001485 258.9438 101.1238 15.02533607153585
Source of the keplerian elements: AFSPC